User: anonymous   Login
Location: UBC Liquid-Mirror Observatory
(49.2876°N, 122.5728°W)
Time: 23:19:43
(UTC-07:00)
Language:

KITSAT 1 - Orbit

View from above orbital plane
View from above orbital plane
View from above satellite
View from above satellite

Ground track
Ground track

The orbit data is extracted from the following two-line orbital elements,

1 22077U 92052B   17080.61395676 -.00000064 +00000-0 -72451-5 0  9991
2 22077 066.0843 149.9926 0004381 345.8965 122.0542 12.86517492155757
Epoch (UTC): 21 March 2017 14:44:05
Eccentricity: 0.0004381
inclination: 66.0843°
perigee height: 1312 km
apogee height: 1319 km
right ascension of ascending node: 149.9926°
argument of perigee: 345.8965°
revolutions per day: 12.86517492
mean anomaly at epoch: 122.0542°
orbit number at epoch: 15575

The dashed part of the orbit path shows where the satellite is in the earth's shadow,  

DLR